{"data":{"norad_id":49756,"epoch":"2026-05-24T06:24:39.722688Z","epoch_age_seconds":138600,"freshness":"FRESH","line1":"1 49756U 21115AJ  26144.26712642 -.00018672  00000+0 -11624-2 0  9999","line2":"2 49756  53.2160 159.8438 0001919  79.7168 280.4041 15.08705229247085","mean_motion":15.08705229,"eccentricity":0.0001919,"inclination_deg":53.216,"raan_deg":159.8438,"arg_perigee_deg":79.7168,"mean_anomaly_deg":280.4041,"bstar":-0.0011624,"rev_number":24708,"period_min":95.446080010902,"perigee_km":538.82774035603,"apogee_km":541.48298096405,"semimajor_km":6918.29236066,"source":"CELESTRAK","updated_at":"2026-05-25T13:38:16.838243Z"}}